Vertical_Velocity
0 -0 -1 -1 -2 -2 -3 -3 -3 -2 -2 -1 1 2 2 3 2 1 1 2 1 0 -1 -1 -1 -1 -1 -0 0 0 0 0 0 0 0 1 -0 -0 -0 -0 -0 -0 -0 -1 -1 -1 -2 -2 -2 -2 -2 -2 -2 -2 -3 -2 -1 -1 -2 -2 -2 -2 -1 -1 -2 -2 -2 -3 -3
0 0 -0 -1 -1 -2 -2 -2 -2 -1 -1 0 1 1 1 0 0 -0 0 1 1 1 0 -1 -0 -0 -0 -1 0 0 0 0 0 0 0 0 -1 -1 -1 -1 -1 -1 -1 -1 -1 -2 -2 -2 -2 -2 -2 -3 -2 -2 -3 -3 -1 -1 -2 -3 -3 -2 -1 -2 -2 -2 -2 -2 -3
0 0 -0 -0 -1 -1 -1 -2 -2 -2 -1 -0 0 0 -0 -1 -0 -0 0 1 1 2 2 1 0 0 0 -1 -0 -0 0 0 0 0 -0 -1 -1 -1 -2 -2 -2 -2 -2 -1 -2 -2 -2 -2 -2 -2 -2 -3 -2 -2 -3 -3 -2 -2 -2 -4 -3 -2 -1 -2 -2 -2 -2 -2 -3
0 -0 -0 -1 -1 -2 -2 -3 -3 -2 -2 -1 -0 -0 -0 -0 -0 0 1 1 2 2 1 1 -0 -1 -1 -1 -1 -1 -1 -0 -0 -0 -1 -1 -1 -2 -2 -2 -2 -2 -2 -2 -2 -2 -2 -2 -2 -2 -2 -2 -2 -2 -3 -3 -2 -2 -2 -3 -2 -2 -2 -3 -2 -2 -2 -3 -3
-0 -1 -1 -1 -2 -3 -3 -2 -2 -2 -2 -1 -0 -0 -0 0 0 0 1 1 1 0 -0 -0 -1 -2 -2 -1 -1 -1 -1 -1 -1 -1 -1 -2 -2 -2 -2 -2 -2 -2 -2 -2 -2 -2 -2 -2 -2 -2 -2 -2 -1 -2 -2 -2 -1 -2 -2 -2 -2 -1 -2 -2 -3 -2 -2 -2 -2
-1 -1 -1 -2 -2 -2 -2 -2 -1 -2 -2 -2 -1 -1 -1 -0 0 0 0 -0 -1 -1 -2 -2 -2 -2 -2 -1 -1 -1 -1 -1 -1 -1 -1 -2 -2 -2 -2 -2 -2 -2 -2 -2 -2 -2 -1 -1 -1 -2 -2 -1 -1 -2 -2 -0 -1 -1 -2 -1 -2 -2 -1 -2 -2 -2 -1 -2 -1
-1 -1 -1 -1 -1 -1 -1 -1 -1 -1 -2 -1 -1 -1 -1 -1 -0 -0 -1 -1 -2 -2 -3 -3 -2 -2 -1 -1 -1 -1 -1 -1 -2 -2 -2 -2 -2 -2 -2 -2 -2 -1 -2 -2 -1 -1 -1 -0 -1 -2 -2 -1 -1 -2 -2 0 -0 -1 -1 -2 -3 -1 -0 -2 -2 -1 0 -1 -1
-1 -1 -1 -1 -1 -0 -0 -0 -1 -1 -0 -0 0 0 -0 -1 -1 -1 -2 -2 -2 -3 -3 -3 -2 -1 -1 -0 -1 -1 -1 -2 -2 -2 -2 -2 -2 -2 -2 -1 -1 -1 -2 -2 -1 -1 -2 -1 -1 -1 -2 -1 -1 -1 -2 -0 -1 -1 -1 -2 -2 -1 -0 -1 -1 -0 0 -0 -0
-1 -1 -1 -1 -0 -0 -0 -0 0 1 1 1 1 0 -0 -1 -1 -2 -2 -2 -3 -3 -2 -2 -2 -1 -1 -1 -1 -1 -2 -2 -2 -2 -2 -2 -2 -2 -2 -1 -1 -2 -2 -2 -2 -2 -2 -2 -1 -2 -2 -1 -1 -1 -2 -0 -0 -1 -1 -1 -1 -1 -0 0 0 0 -0 0 -0
-1 -1 -1 -0 -0 -0 0 1 1 2 2 2 1 0 -0 -1 -2 -2 -2 -3 -2 -2 -2 -2 -1 -1 -1 -1 -1 -2 -2 -2 -2 -2 -2 -2 -2 -2 -2 -2 -2 -2 -3 -3 -2 -2 -2 -2 -1 -2 -2 -0 -0 -1 -1 -0 0 -0 -1 -1 0 0 -0 0 1 0 -0 -0 -0
-1 -1 -1 -1 -0 0 1 2 2 3 3 2 1 0 -1 -1 -2 -2 -2 -2 -1 -2 -2 -2 -1 -2 -2 -2 -2 -2 -2 -2 -2 -2 -2 -3 -3 -3 -3 -3 -2 -2 -3 -3 -2 -2 -2 -2 -1 -1 -1 -1 -0 -0 -0 0 1 1 -0 -0 1 1 0 -0 0 0 -0 -1 -1
-1 -1 -1 -0 -0 0 1 2 2 2 2 1 0 -0 -1 -1 -2 -2 -2 -1 -2 -2 -2 -2 -2 -2 -2 -2 -3 -3 -3 -3 -3 -2 -2 -2 -2 -2 -2 -2 -2 -2 -2 -3 -2 -2 -1 -2 -1 -1 -1 -1 0 1 1 1 1 1 1 1 1 1 0 -1 -0 -1 -1 -1 -1
-1 -1 -0 0 1 1 1 2 1 1 0 -0 -1 -1 -1 -2 -2 -2 -2 -2 -2 -2 -2 -3 -3 -2 -3 -3 -3 -3 -3 -3 -2 -2 -2 -2 -2 -2 -2 -2 -2 -3 -3 -3 -3 -2 -2 -2 -1 -1 -0 -0 1 1 2 2 2 2 1 1 1 0 -0 -1 -1 -1 -1 -1 -1
-1 0 1 1 1 1 1 1 0 -0 -1 -1 -2 -2 -2 -2 -2 -2 -2 -2 -2 -2 -3 -3 -3 -3 -3 -3 -3 -3 -3 -2 -2 -2 -1 -2 -2 -2 -2 -3 -3 -3 -3 -3 -3 -3 -2 -2 -1 -1 -0 0 1 1 2 2 2 1 1 1 0 -0 -1 -1 -1 -1 -1 -1 -1
1 1 1 1 1 1 0 -0 -1 -1 -2 -2 -2 -3 -3 -3 -2 -2 -2 -2 -2 -2 -3 -3 -3 -3 -3 -3 -3 -3 -2 -2 -2 -1 -1 -1 -1 -1 -2 -2 -3 -3 -3 -3 -3 -3 -2 -2 -2 -1 -0 -0 0 1 1 1 1 1 0 0 -0 -1 -1 -1 -1 -1 -1 -1 -1
1 1 1 0 0 0 0 -0 -1 -1 -2 -2 -3 -3 -3 -2 -2 -2 -2 -2 -2 -2 -3 -3 -3 -3 -3 -3 -3 -3 -2 -2 -1 -0 0 0 0 -0 -0 -1 -2 -2 -3 -3 -3 -3 -3 -2 -2 -1 -1 -0 -0 0 1 1 1 0 0 0 -0 -0 -1 -1 -1 -1 -1 -1 -1
1 0 0 0 1 1 0 -0 -1 -2 -2 -3 -3 -3 -3 -2 -2 -2 -2 -2 -3 -3 -3 -3 -3 -3 -3 -3 -3 -2 -2 -1 -0 0 1 1 0 0 0 -0 -1 -1 -1 -2 -2 -2 -2 -1 -1 -1 -0 0 0 1 1 1 1 1 0 0 0 -0 -0 -0 -0 -0 -0 -1 -0
1 1 1 1 1 1 -0 -1 -2 -3 -3 -3 -3 -3 -3 -2 -2 -2 -3 -2 -2 -2 -3 -3 -3 -3 -3 -3 -2 -1 -0 1 0 -0 -1 -1 -0 0 1 1 0 0 0 0 0 0 -0 0 0 0 1 1 1 1 1 1 1 1 1 1 0 0 -0 -0 -0 -0 -0 -0 -1
1 2 1 1 -0 -1 -2 -3 -3 -3 -3 -3 -3 -3 -2 -2 -2 -2 -2 -2 -2 -2 -3 -3 -3 -2 -1 -1 1 2 2 1 0 -1 -1 -1 -0 1 1 1 2 2 2 1 1 1 1 1 1 1 1 1 1 1 1 1 1 1 1 1 0 0 -0 -0 -1 -1 -1 -1 -1
1 1 -0 -2 -3 -3 -4 -4 -3 -3 -3 -2 -2 -2 -2 -1 -1 -0 -0 -0 -1 -1 -1 -1 0 2 3 4 4 4 3 1 1 0 0 0 1 1 2 2 2 2 2 2 2 2 1 1 1 1 1 1 1 1 1 1 1 1 0 0 0 -0 -0 -1 -1 -1 -1 -1 -1
-0 -1 -3 -4 -4 -3 -3 -3 -2 -2 -1 -1 -1 -1 -0 0 1 1 1 0 1 2 3 3 4 4 3 3 2 1 -0 -1 -0 0 1 1 2 2 2 3 3 2 2 3 4 3 2 2 2 1 1 2 1 1 1 1 0 0 0 0 -0 -0 -0 -0 -1 -1 -1 -1 -0
-2 -2 -3 -3 -2 -2 -2 -1 -1 -0 -0 -0 0 0 0 0 -0 -0 0 1 2 3 3 3 2 2 0 -1 -1 -2 -2 -1 -1 0 1 1 2 2 2 3 3 2 2 3 4 4 3 2 2 3 3 2 2 1 1 1 1 1 1 1 1 1 0 0 0 0 0 0 0
-1 -1 -1 -1 -1 -1 -1 -1 -0 0 0 0 -0 -1 -1 -1 -1 -1 0 1 1 2 1 1 0 -0 -1 -1 -1 -1 -1 0 1 1 2 2 2 2 2 3 2 2 1 2 3 3 3 3 3 4 4 3 2 2 2 2 2 2 2 2 2 1 1 1 1 1 1 1 1
-1 -1 -0 0 0 -0 -0 -0 0 0 0 -1 -1 -2 -2 -2 -2 -1 -1 -0 0 1 1 0 -0 -1 -1 -1 -0 0 1 1 1 2 2 2 2 2 2 2 2 2 2 2 2 3 3 3 3 3 3 3 3 3 3 2 2 2 2 2 2 2 2 2 2 2 2 2 2
-1 -0 0 0 0 -0 0 0 0 -0 -1 -2 -3 -3 -3 -3 -2 -2 -1 -0 0 0 0 0 -0 -1 -1 -1 -0 0 1 1 1 1 1 1 1 2 2 1 2 2 2 2 2 2 2 2 2 2 3 3 3 3 3 2 2 2 2 2 2 2 2 2 2 2 2 2 2
-1 -1 -0 -0 0 0 0 -0 -1 -2 -3 -3 -4 -4 -3 -2 -1 -1 -0 0 0 0 0 -0 -0 -0 -0 -0 0 0 0 0 0 0 -0 0 0 0 1 1 1 2 2 2 2 2 2 2 2 2 2 2 2 2 2 2 2 2 2 2 2 2 2 2 1 1 1 1 1
-1 -1 -0 1 1 0 -1 -2 -2 -3 -4 -4 -4 -3 -2 -1 -0 0 0 0 0 -0 -0 -0 -0 -0 0 0 0 0 -0 -0 -0 -0 -0 -0 0 0 1 1 1 2 2 2 2 2 2 2 2 2 2 2 2 2 2 2 2 2 1 1 1 1 1 1 1 1 1 0 0
-1 1 2 3 1 -1 -2 -2 -3 -4 -4 -3 -3 -2 -1 -0 0 0 -0 -0 -1 -1 -1 -0 -0 0 0 1 1 1 1 1 1 1 1 1 1 1 1 1 1 1 1 1 1 1 1 1 1 1 1 1 1 1 1 1 1 1 1 1 1 1 1 1 1 1 1 1 1
2 2 2 1 -1 -1 -2 -3 -4 -4 -3 -2 -1 -1 -0 -0 -0 -0 -0 -0 -0 -0 0 0 1 1 1 1 1 2 2 2 2 2 2 2 1 1 1 1 1 0 0 -0 -0 -0 0 0 0 -0 -0 -0 -0 -0 0 0 0 1 1 1 1 1 1 1 1 1 1 1 1
3 2 1 -1 -1 -1 -2 -3 -3 -3 -2 -2 -1 -0 -0 -0 0 0 1 1 1 1 1 2 2 2 2 2 1 1 1 1 1 1 1 1 1 1 0 0 0 0 0 0 0 0 0 0 0 -0 -0 -0 0 0 0 0 0 1 1 1 1 1 0 0 0 0 0 0 0
3 2 0 -1 -1 -1 -2 -2 -3 -2 -2 -1 -0 -0 0 1 1 1 2 2 2 2 2 2 2 1 1 1 0 0 -0 -0 -0 0 0 0 0 0 0 0 0 1 1 1 1 1 1 1 0 0 0 0 0 0 0 0 0 0 0 0 0 0 0 0 0 0 0 0 0
3 2 1 -0 -1 -2 -2 -2 -2 -1 -1 -0 0 1 1 2 2 2 2 2 2 2 2 1 1 0 -0 -0 -1 -1 -1 -1 -1 -1 -0 -0 -0 0 0 0 0 0 1 1 1 1 0 0 0 0 0 0 0 1 1 0 0 0 0 0 1 1 1 1 1 1 1 1 1
3 2 1 -1 -1 -2 -1 -1 -1 -0 -0 0 1 1 2 2 2 2 2 2 2 1 1 0 -0 -0 -1 -1 -1 -1 -1 -1 -1 -0 -0 -0 0 0 0 1 1 1 1 1 1 0 0 0 0 0 0 0 1 1 1 1 1 1 1 1 1 1 1 1 1 1 1 1 1
1 1 0 -0 -1 -1 -1 -1 -0 0 0 1 1 2 2 2 2 2 2 1 1 0 0 -0 -1 -1 -1 -1 -1 -1 -0 -0 0 0 0 0 1 1 1 1 1 1 1 1 0 0 0 0 0 0 0 0 0 1 1 1 1 1 1 1 1 1 1 2 2 2 2 2 2
0 0 0 -0 -0 -0 -0 0 0 1 1 1 1 2 2 2 2 1 1 1 0 0 -0 -0 -1 -1 -1 -1 -0 -0 0 1 1 1 1 1 1 1 1 1 1 0 0 0 0 0 0 0 0 0 0 0 1 1 1 1 1 1 1 2 2 2 2 2 2 2 2 2 2
0 0 0 0 0 0 0 1 1 1 1 1 1 1 1 1 1 1 0 0 -0 -0 -0 -0 -0 -0 -0 -0 0 1 1 1 2 2 2 2 1 1 1 0 0 0 -0 -0 0 0 0 0 1 1 1 1 1 1 1 1 1 1 2 2 2 2 2 2 2 2 2 2 2
1 1 1 1 1 1 1 1 1 1 1 1 1 1 1 1 0 -0 -0 -0 -0 -0 -0 -0 -0 -0 0 0 1 1 1 2 2 2 2 2 2 1 1 1 0 0 0 0 0 0 1 1 1 1 1 2 2 2 2 2 2 2 2 2 2 2 2 2 2 1 1 1 1
2 1 1 1 1 1 1 1 1 0 0 0 0 0 0 -0 -0 -0 -0 -0 -0 0 0 0 0 0 1 1 1 1 1 1 1 1 1 1 1 1 2 2 1 1 1 1 1 1 1 1 2 2 2 2 2 2 2 2 2 2 2 2 2 1 1 1 1 1 0 0 0
2 2 2 1 1 1 1 1 0 0 -0 -0 -0 -0 -0 -0 -0 -0 -0 0 0 0 0 0 1 1 1 1 1 1 1 1 1 0 0 0 1 1 1 2 2 2 2 2 2 2 2 2 2 2 2 2 2 2 2 2 2 2 2 1 1 1 1 0 0 0 0 0 0
2 2 2 1 1 1 0 0 -0 -0 -0 -0 -0 -0 -0 -0 -0 0 0 0 1 1 1 1 1 1 1 1 1 1 0 0 0 -0 -0 -0 0 0 1 1 1 2 2 2 2 2 2 2 2 2 2 2 2 2 2 2 1 1 1 1 0 0 0 0 0 0 0 0 1
2 2 2 1 1 1 0 -0 -0 -0 -0 -0 -0 -0 -0 -0 0 0 1 1 1 1 1 1 1 1 1 0 0 0 0 0 0 0 0 0 0 0 0 0 1 1 1 1 1 1 1 1 2 2 2 1 1 1 1 1 0 0 0 0 0 0 0 0 1 1 1 1 1
Height
5666 5667 5668 5670 5671 5672 5674 5675 5676 5678 5679 5680 5681 5682 5683 5684 5684 5684 5685 5686 5686 5687 5687 5688 5688 5689 5690 5690 5691 5691 5692 5692 5693 5693 5693 5694 5694 5695 5695 5696 5696 5696 5697 5697 5698 5698 5698 5699 5699 5700 5700 5700 5701 5701 5701 5702 5703 5703 5703 5704 5704 5705 5705 5706 5706 5706 5707 5707 5707
5663 5664 5666 5667 5668 5669 5671 5672 5673 5674 5676 5677 5678 5678 5679 5680 5680 5681 5682 5682 5683 5683 5684 5684 5685 5685 5686 5686 5687 5687 5688 5688 5688 5688 5689 5689 5689 5690 5691 5691 5691 5692 5692 5693 5693 5693 5694 5694 5695 5695 5695 5696 5696 5696 5697 5697 5698 5698 5698 5699 5700 5700 5701 5701 5701 5702 5702 5703 5703
5660 5662 5663 5664 5665 5667 5668 5669 5670 5671 5673 5673 5674 5675 5676 5676 5677 5678 5678 5679 5679 5680 5680 5680 5681 5681 5682 5682 5682 5683 5683 5683 5684 5684 5684 5685 5685 5685 5686 5686 5687 5687 5688 5688 5688 5689 5689 5689 5690 5690 5690 5691 5691 5692 5692 5692 5693 5693 5694 5694 5695 5696 5696 5696 5697 5697 5698 5698 5698
5658 5659 5660 5661 5663 5663 5665 5666 5667 5668 5669 5670 5671 5672 5672 5673 5673 5674 5675 5675 5676 5676 5676 5676 5677 5677 5677 5678 5678 5678 5679 5679 5679 5680 5680 5680 5681 5681 5681 5682 5682 5683 5683 5683 5684 5684 5684 5685 5685 5685 5686 5686 5686 5687 5687 5688 5688 5689 5689 5690 5690 5691 5692 5692 5692 5693 5693 5693 5694
5655 5656 5657 5658 5659 5661 5662 5663 5664 5665 5666 5667 5668 5668 5669 5669 5670 5670 5671 5671 5671 5672 5672 5672 5673 5673 5673 5673 5674 5674 5674 5675 5675 5675 5676 5676 5676 5677 5677 5677 5678 5678 5678 5678 5679 5679 5679 5680 5680 5680 5681 5681 5682 5682 5683 5683 5684 5684 5685 5685 5686 5686 5687 5687 5688 5688 5688 5689 5689
5652 5653 5654 5656 5657 5658 5658 5659 5660 5661 5662 5663 5664 5664 5665 5665 5666 5666 5667 5667 5667 5667 5668 5668 5668 5669 5669 5669 5669 5670 5670 5670 5671 5671 5671 5672 5672 5672 5673 5673 5673 5673 5673 5673 5674 5674 5674 5675 5675 5676 5676 5677 5677 5677 5678 5678 5679 5680 5680 5681 5681 5682 5682 5682 5683 5683 5684 5684 5684
5649 5650 5652 5653 5653 5655 5656 5656 5657 5658 5659 5659 5660 5660 5661 5661 5662 5662 5663 5663 5663 5663 5664 5664 5664 5665 5665 5665 5665 5665 5666 5666 5666 5667 5667 5667 5668 5668 5668 5668 5668 5668 5668 5668 5669 5669 5669 5670 5670 5671 5671 5672 5672 5673 5673 5674 5674 5675 5676 5676 5676 5677 5678 5678 5678 5678 5679 5679 5680
5646 5648 5648 5649 5651 5652 5653 5653 5654 5655 5655 5656 5656 5657 5657 5658 5658 5658 5658 5659 5659 5659 5660 5660 5661 5661 5661 5661 5661 5661 5661 5662 5662 5662 5662 5663 5663 5663 5663 5663 5663 5663 5663 5663 5663 5664 5664 5665 5665 5666 5666 5667 5668 5668 5668 5669 5670 5670 5671 5671 5672 5672 5673 5673 5673 5674 5674 5675 5675
5644 5645 5646 5647 5648 5649 5649 5650 5651 5652 5652 5653 5653 5653 5653 5654 5654 5655 5655 5655 5655 5656 5656 5656 5656 5657 5657 5657 5657 5657 5657 5657 5657 5658 5658 5658 5658 5658 5658 5658 5658 5658 5658 5658 5658 5658 5659 5659 5660 5661 5661 5662 5663 5663 5664 5664 5665 5666 5666 5667 5667 5668 5668 5668 5669 5669 5670 5670 5671
5641 5642 5643 5644 5645 5646 5647 5648 5648 5648 5649 5649 5649 5650 5650 5650 5651 5651 5651 5651 5651 5652 5652 5652 5652 5652 5653 5653 5653 5653 5653 5653 5653 5653 5653 5653 5653 5653 5653 5653 5653 5653 5653 5653 5653 5653 5653 5654 5655 5655 5656 5657 5658 5658 5659 5660 5661 5661 5662 5662 5663 5663 5664 5664 5665 5665 5666 5666 5667
5638 5639 5641 5641 5642 5643 5644 5644 5645 5645 5646 5646 5646 5646 5646 5647 5647 5647 5647 5647 5648 5648 5648 5648 5648 5648 5648 5648 5649 5649 5649 5649 5649 5649 5649 5649 5648 5648 5648 5648 5648 5647 5647 5647 5647 5648 5648 5649 5649 5650 5651 5652 5653 5654 5654 5655 5656 5657 5657 5658 5659 5659 5660 5660 5661 5662 5662 5663 5663
5636 5637 5638 5638 5639 5640 5641 5641 5642 5642 5642 5642 5643 5643 5643 5643 5643 5643 5643 5644 5644 5644 5644 5644 5644 5645 5645 5645 5645 5645 5645 5645 5645 5645 5645 5644 5644 5643 5643 5643 5642 5642 5642 5642 5642 5643 5643 5643 5644 5645 5646 5647 5648 5649 5650 5651 5652 5653 5653 5654 5655 5656 5656 5657 5658 5658 5659 5659 5660
5633 5634 5635 5636 5636 5637 5638 5638 5639 5639 5639 5639 5639 5639 5639 5639 5639 5640 5640 5640 5640 5640 5640 5640 5641 5641 5641 5641 5641 5642 5642 5642 5641 5641 5641 5640 5640 5639 5639 5638 5638 5638 5637 5637 5637 5638 5638 5638 5639 5640 5641 5643 5643 5645 5646 5647 5648 5649 5650 5651 5652 5652 5653 5654 5654 5655 5656 5656 5657
5630 5631 5632 5633 5634 5634 5635 5636 5636 5636 5636 5636 5636 5636 5636 5636 5636 5636 5636 5637 5637 5637 5637 5637 5637 5638 5638 5638 5638 5638 5638 5638 5638 5638 5638 5637 5636 5636 5635 5634 5634 5633 5633 5633 5633 5633 5633 5634 5634 5635 5637 5638 5639 5640 5642 5643 5644 5645 5646 5647 5648 5649 5650 5651 5652 5652 5653 5653 5654
5628 5629 5630 5631 5632 5632 5633 5633 5633 5633 5633 5633 5633 5633 5633 5633 5633 5633 5633 5633 5633 5634 5634 5634 5634 5635 5635 5635 5635 5635 5636 5636 5636 5635 5635 5634 5633 5633 5632 5631 5630 5629 5628 5628 5628 5628 5628 5629 5630 5631 5632 5633 5635 5636 5638 5639 5640 5641 5643 5644 5645 5646 5647 5648 5648 5649 5650 5651 5651
5626 5627 5628 5629 5630 5630 5631 5631 5631 5631 5631 5631 5631 5631 5631 5631 5631 5631 5631 5631 5631 5632 5632 5632 5632 5633 5633 5633 5633 5633 5634 5634 5634 5633 5633 5632 5631 5630 5629 5628 5626 5625 5624 5623 5623 5623 5624 5624 5625 5626 5628 5629 5630 5632 5633 5635 5636 5638 5639 5640 5642 5643 5644 5645 5646 5647 5647 5648 5648
5624 5625 5626 5627 5628 5629 5629 5629 5629 5629 5629 5629 5629 5629 5629 5629 5629 5629 5629 5629 5630 5630 5630 5630 5630 5631 5631 5632 5632 5632 5632 5632 5632 5632 5631 5630 5629 5628 5627 5625 5623 5622 5621 5620 5619 5619 5619 5620 5621 5622 5623 5624 5626 5628 5629 5631 5633 5634 5635 5637 5638 5639 5641 5642 5643 5643 5644 5645 5646
5622 5623 5625 5626 5626 5627 5628 5628 5628 5628 5628 5628 5628 5628 5628 5628 5628 5628 5628 5628 5628 5628 5629 5629 5629 5629 5630 5630 5631 5631 5631 5631 5631 5630 5630 5628 5628 5626 5625 5623 5621 5620 5618 5617 5616 5616 5616 5616 5617 5618 5619 5620 5622 5623 5625 5627 5629 5630 5632 5633 5635 5636 5638 5638 5640 5641 5641 5642 5643
5621 5622 5623 5624 5625 5625 5626 5627 5627 5627 5627 5627 5627 5627 5627 5627 5627 5627 5627 5627 5627 5628 5628 5628 5628 5628 5629 5629 5629 5629 5629 5629 5629 5629 5628 5627 5626 5625 5623 5622 5620 5619 5617 5616 5614 5614 5613 5613 5614 5615 5616 5617 5618 5620 5622 5624 5625 5627 5629 5630 5632 5633 5635 5636 5637 5638 5638 5639 5640
5619 5620 5621 5622 5623 5624 5625 5625 5625 5625 5625 5626 5626 5626 5626 5626 5626 5626 5626 5626 5626 5626 5626 5627 5627 5627 5628 5628 5628 5628 5628 5628 5628 5627 5627 5626 5625 5624 5623 5621 5620 5618 5617 5615 5614 5613 5613 5613 5613 5613 5614 5615 5617 5618 5620 5621 5623 5625 5626 5628 5629 5631 5632 5633 5634 5635 5636 5637 5638
5618 5619 5620 5621 5622 5623 5623 5623 5623 5624 5624 5624 5624 5625 5625 5625 5625 5625 5625 5625 5625 5625 5625 5625 5626 5626 5627 5627 5627 5627 5627 5627 5627 5626 5626 5625 5624 5623 5622 5621 5619 5618 5617 5615 5615 5614 5613 5613 5613 5613 5613 5614 5616 5617 5618 5620 5621 5623 5624 5626 5627 5628 5630 5631 5632 5633 5634 5634 5635
5617 5618 5619 5620 5620 5621 5622 5622 5622 5623 5623 5623 5623 5623 5623 5623 5623 5623 5623 5623 5623 5624 5624 5625 5625 5626 5626 5626 5627 5627 5627 5627 5626 5626 5625 5624 5624 5623 5622 5620 5619 5618 5617 5616 5615 5614 5614 5613 5613 5614 5614 5615 5616 5617 5618 5619 5620 5622 5623 5624 5626 5627 5628 5629 5630 5631 5632 5633 5633
5616 5617 5618 5618 5619 5619 5620 5620 5621 5621 5622 5622 5622 5622 5622 5622 5623 5623 5623 5623 5623 5623 5624 5624 5625 5625 5626 5626 5627 5627 5627 5626 5626 5625 5625 5624 5623 5623 5622 5621 5620 5618 5618 5617 5616 5615 5615 5615 5615 5615 5616 5616 5617 5618 5618 5619 5620 5622 5623 5624 5625 5626 5627 5628 5629 5630 5630 5631 5632
5614 5615 5616 5617 5618 5618 5619 5619 5620 5620 5621 5621 5621 5622 5622 5622 5622 5623 5623 5623 5623 5624 5624 5625 5625 5625 5626 5626 5626 5626 5626 5626 5625 5625 5624 5624 5623 5622 5622 5621 5620 5619 5618 5618 5617 5617 5617 5616 5617 5617 5617 5617 5618 5618 5619 5620 5621 5622 5623 5624 5625 5626 5627 5628 5628 5629 5629 5630 5631
5613 5614 5615 5616 5617 5617 5618 5618 5619 5620 5620 5621 5621 5622 5622 5622 5622 5623 5623 5623 5624 5624 5624 5625 5625 5625 5626 5626 5626 5626 5625 5625 5625 5624 5624 5623 5623 5622 5621 5620 5620 5619 5619 5618 5618 5618 5618 5618 5618 5618 5618 5618 5619 5619 5620 5621 5622 5623 5623 5624 5625 5626 5626 5627 5628 5628 5629 5629 5629
5612 5613 5614 5615 5616 5617 5618 5618 5619 5619 5620 5621 5621 5622 5622 5622 5623 5623 5623 5623 5624 5624 5624 5624 5625 5625 5625 5625 5625 5625 5625 5624 5624 5624 5623 5623 5622 5622 5621 5621 5620 5620 5619 5619 5619 5618 5618 5618 5618 5619 5619 5619 5620 5620 5621 5621 5622 5623 5623 5624 5625 5625 5626 5627 5627 5627 5628 5628 5628
5611 5612 5613 5614 5616 5616 5617 5618 5619 5619 5620 5621 5621 5622 5622 5622 5623 5623 5623 5623 5623 5624 5624 5624 5624 5625 5625 5625 5624 5624 5624 5624 5623 5623 5623 5623 5622 5622 5621 5621 5620 5620 5620 5619 5619 5619 5619 5619 5619 5619 5619 5620 5620 5621 5621 5622 5622 5623 5623 5624 5624 5625 5625 5626 5626 5626 5627 5627 5627
5610 5611 5613 5614 5615 5616 5617 5618 5619 5619 5620 5621 5621 5622 5622 5622 5623 5623 5623 5623 5623 5624 5624 5624 5624 5624 5624 5624 5624 5624 5624 5623 5623 5623 5623 5623 5622 5622 5621 5621 5621 5620 5620 5620 5619 5619 5619 5619 5619 5619 5620 5620 5620 5621 5621 5621 5622 5622 5623 5623 5623 5624 5624 5625 5625 5625 5626 5626 5626
5609 5611 5612 5614 5615 5616 5617 5618 5618 5619 5620 5620 5621 5621 5622 5622 5623 5623 5623 5623 5623 5624 5624 5624 5624 5624 5624 5624 5624 5624 5624 5623 5623 5623 5623 5622 5622 5622 5621 5621 5621 5620 5620 5620 5620 5620 5619 5619 5619 5619 5620 5620 5620 5620 5621 5621 5621 5622 5622 5623 5623 5623 5623 5623 5624 5624 5624 5624 5624
5609 5611 5612 5614 5615 5616 5617 5618 5618 5619 5620 5620 5621 5621 5622 5622 5623 5623 5623 5623 5623 5624 5624 5624 5624 5624 5624 5624 5624 5623 5623 5623 5623 5623 5622 5622 5622 5621 5621 5621 5620 5620 5620 5620 5620 5620 5619 5619 5619 5619 5620 5620 5620 5620 5620 5621 5621 5621 5622 5622 5622 5622 5622 5623 5623 5623 5623 5623 5623
5609 5611 5613 5614 5615 5616 5617 5618 5618 5619 5620 5620 5621 5621 5622 5622 5623 5623 5623 5623 5623 5623 5623 5624 5624 5624 5623 5623 5623 5623 5623 5622 5622 5622 5622 5621 5621 5621 5621 5620 5620 5620 5620 5620 5620 5620 5619 5619 5619 5619 5619 5620 5620 5620 5620 5620 5620 5621 5621 5621 5621 5621 5621 5622 5622 5622 5622 5622 5622
5610 5612 5613 5614 5615 5616 5617 5618 5618 5619 5619 5620 5621 5621 5622 5622 5622 5623 5623 5623 5623 5623 5623 5623 5623 5623 5623 5623 5623 5622 5622 5622 5622 5621 5621 5621 5621 5621 5621 5621 5620 5620 5620 5620 5620 5619 5619 5619 5619 5619 5619 5619 5619 5619 5620 5620 5620 5620 5620 5620 5620 5620 5621 5621 5621 5621 5621 5621 5621
5611 5612 5613 5614 5615 5616 5617 5618 5618 5619 5619 5620 5621 5621 5622 5622 5622 5622 5622 5622 5623 5623 5623 5623 5623 5623 5622 5622 5622 5622 5622 5622 5622 5621 5621 5621 5621 5621 5621 5621 5620 5620 5620 5620 5620 5619 5619 5619 5619 5619 5619 5619 5619 5619 5619 5619 5619 5619 5619 5620 5620 5620 5620 5620 5620 5620 5620 5619 5619
5611 5612 5613 5614 5615 5616 5617 5618 5618 5619 5619 5620 5621 5621 5621 5622 5622 5622 5622 5622 5622 5622 5622 5622 5622 5622 5622 5622 5622 5622 5622 5622 5622 5621 5621 5621 5621 5621 5621 5621 5620 5620 5620 5620 5619 5619 5619 5619 5619 5619 5619 5619 5619 5619 5619 5619 5619 5619 5619 5619 5619 5619 5619 5618 5618 5618 5618 5618 5618
5612 5613 5613 5614 5615 5616 5617 5618 5618 5619 5619 5620 5620 5621 5621 5621 5621 5621 5621 5621 5621 5621 5622 5622 5622 5622 5622 5622 5622 5622 5622 5622 5622 5621 5621 5621 5621 5621 5621 5620 5620 5620 5620 5619 5619 5619 5619 5619 5619 5619 5619 5619 5618 5618 5618 5618 5618 5618 5618 5618 5618 5618 5618 5617 5617 5617 5617 5616 5616
5612 5613 5614 5614 5615 5616 5617 5617 5618 5618 5619 5619 5620 5620 5620 5620 5620 5620 5620 5621 5621 5621 5621 5621 5621 5621 5621 5621 5621 5621 5621 5622 5621 5621 5621 5621 5621 5621 5621 5620 5620 5620 5619 5619 5619 5619 5619 5619 5618 5618 5618 5618 5618 5618 5618 5618 5618 5617 5617 5617 5617 5616 5616 5616 5615 5615 5614 5614 5613
5613 5613 5614 5614 5615 5616 5616 5617 5618 5618 5618 5619 5619 5619 5619 5619 5619 5620 5620 5620 5620 5621 5621 5621 5621 5621 5621 5621 5621 5621 5621 5621 5621 5621 5621 5621 5621 5620 5620 5620 5620 5619 5619 5619 5618 5618 5618 5618 5618 5618 5618 5618 5617 5617 5617 5617 5616 5616 5616 5615 5615 5614 5614 5614 5613 5613 5612 5612 5611
5613 5613 5614 5614 5615 5615 5616 5616 5617 5617 5618 5618 5618 5618 5618 5618 5619 5619 5619 5619 5620 5620 5620 5620 5620 5620 5621 5621 5621 5621 5620 5620 5620 5620 5620 5620 5620 5620 5620 5620 5619 5619 5619 5618 5618 5618 5618 5618 5617 5617 5617 5617 5616 5616 5616 5615 5615 5614 5614 5613 5613 5613 5612 5612 5611 5611 5610 5610 5609
5613 5613 5613 5614 5614 5615 5615 5616 5616 5617 5617 5617 5617 5618 5618 5618 5618 5618 5619 5619 5619 5619 5620 5620 5620 5620 5620 5620 5620 5620 5620 5620 5619 5619 5619 5619 5619 5619 5619 5619 5619 5619 5618 5618 5618 5617 5617 5617 5616 5616 5616 5615 5615 5615 5614 5613 5613 5613 5612 5612 5611 5611 5610 5610 5609 5609 5608 5608 5607
5612 5613 5613 5613 5614 5614 5615 5615 5615 5616 5616 5616 5616 5617 5617 5617 5618 5618 5618 5618 5618 5619 5619 5619 5619 5619 5619 5619 5619 5619 5619 5619 5619 5619 5619 5618 5618 5618 5618 5618 5618 5618 5618 5617 5617 5616 5616 5616 5615 5615 5614 5614 5613 5613 5612 5612 5611 5611 5610 5610 5609 5609 5608 5608 5608 5607 5607 5606 5605
5612 5612 5613 5613 5613 5613 5614 5614 5614 5615 5615 5615 5616 5616 5616 5617 5617 5617 5618 5618 5618 5618 5618 5618 5618 5618 5618 5618 5618 5618 5618 5618 5618 5618 5618 5618 5618 5617 5617 5617 5617 5617 5616 5616 5615 5615 5614 5614 5613 5613 5612 5612 5611 5611 5610 5610 5609 5609 5608 5608 5608 5607 5607 5606 5606 5605 5604 5604 5603